Time,TemperatureF,DewpointF,PressureIn,WindDirection,WindDirectionDegrees,WindSpeedMPH,WindSpeedGustMPH,Humidity,HourlyPrecipIn,Conditions,Clouds,dailyrainin,SoftwareType,DateUTC
2013-08-29 00:18:00,68.0,66.0,29.82,North,350,0.0,-999.0,92,-99.99,,,-99.99,,2013-08-29 04:18:00,
2013-08-29 04:22:00,-999.0,-99.9,29.82,North,350,0.0,-999.0,-999,-99.99,,,-99.99,,2013-08-29 08:22:00,
2013-08-29 06:43:00,-999.0,-99.9,29.89,North,350,0.0,-999.0,-999,-99.99,,,-99.99,,2013-08-29 10:43:00,
2013-08-29 06:53:00,-999.0,-99.9,29.89,North,350,0.0,-999.0,-999,-99.99,,,-99.99,,2013-08-29 10:53:00,
2013-08-29 07:12:00,66.0,64.0,29.86,North,350,0.0,-999.0,94,-99.99,,,-99.99,,2013-08-29 11:12:00,
2013-08-29 07:22:00,66.0,64.0,29.87,North,350,0.0,-999.0,94,-99.99,,,-99.99,,2013-08-29 11:22:00,
2013-08-29 07:42:00,66.0,64.0,29.87,North,350,0.0,-999.0,94,-99.99,,,-99.99,,2013-08-29 11:42:00,
2013-08-29 07:52:00,66.0,64.0,29.88,North,350,0.0,-999.0,94,-99.99,,,-99.99,,2013-08-29 11:52:00,
2013-08-29 08:12:00,66.0,64.0,29.89,North,350,0.0,-999.0,94,-99.99,,,-99.99,,2013-08-29 12:12:00,
2013-08-29 08:22:00,66.0,64.0,29.90,North,350,0.0,-999.0,94,-99.99,,,-99.99,,2013-08-29 12:22:00,
2013-08-29 08:42:00,66.0,64.0,29.91,North,350,0.0,-999.0,94,-99.99,,,-99.99,,2013-08-29 12:42:00,
2013-08-29 08:52:00,67.0,65.0,29.91,North,350,0.0,-999.0,94,-99.99,,,-99.99,,2013-08-29 12:52:00,
2013-08-29 09:42:00,67.0,65.0,29.92,North,350,0.0,-999.0,94,-99.99,,,-99.99,,2013-08-29 13:42:00,
2013-08-29 09:52:00,67.0,66.0,29.92,North,350,0.0,-999.0,95,-99.99,,,-99.99,,2013-08-29 13:52:00,
2013-08-29 10:11:00,68.0,67.0,29.92,East,100,1.0,-999.0,95,-99.99,,,-99.99,,2013-08-29 14:11:00,
2013-08-29 10:22:00,68.0,66.0,29.92,SE,134,0.0,-999.0,94,-99.99,,,-99.99,,2013-08-29 14:22:00,
2013-08-29 10:42:00,69.0,67.0,29.92,SSW,196,0.0,-999.0,94,-99.99,,,-99.99,,2013-08-29 14:42:00,
2013-08-29 10:52:00,70.0,67.0,29.92,SSW,196,0.0,-999.0,90,-99.99,,,-99.99,,2013-08-29 14:52:00,
2013-08-29 11:12:00,72.0,67.0,29.92,East,100,0.0,-999.0,83,-99.99,,,-99.99,,2013-08-29 15:12:00,
2013-08-29 11:22:00,74.0,66.0,29.92,NNW,336,0.0,-999.0,77,-99.99,,,-99.99,,2013-08-29 15:22:00,
2013-08-29 11:43:00,75.0,65.0,29.92,NNW,342,0.0,-999.0,72,-99.99,,,-99.99,,2013-08-29 15:43:00,
2013-08-29 11:53:00,77.0,65.0,29.92,ESE,117,0.0,-999.0,66,-99.99,,,-99.99,,2013-08-29 15:53:00,
2013-08-29 12:13:00,78.0,66.0,29.90,North,8,0.0,-999.0,66,-99.99,,,-99.99,,2013-08-29 16:13:00,
2013-08-29 12:24:00,79.0,65.0,29.90,ENE,73,0.0,-999.0,62,-99.99,,,-99.99,,2013-08-29 16:24:00,
2013-08-29 12:43:00,80.0,65.0,29.90,East,99,0.0,-999.0,61,-99.99,,,-99.99,,2013-08-29 16:43:00,
2013-08-29 12:53:00,81.0,65.0,29.89,NE,35,0.0,-999.0,59,-99.99,,,-99.99,,2013-08-29 16:53:00,
2013-08-29 13:13:00,81.0,66.0,29.89,NNW,329,0.0,-999.0,60,-99.99,,,-99.99,,2013-08-29 17:13:00,
2013-08-29 13:23:00,81.0,66.0,29.89,NNW,332,0.0,-999.0,61,-99.99,,,-99.99,,2013-08-29 17:23:00,
2013-08-29 13:44:00,83.0,67.0,29.88,NNW,332,0.0,-999.0,59,-99.99,,,-99.99,,2013-08-29 17:44:00,
2013-08-29 13:52:00,81.0,67.0,29.88,NNW,344,1.0,-999.0,63,-99.99,,,-99.99,,2013-08-29 17:52:00,
2013-08-29 14:12:00,82.0,68.0,29.88,North,350,0.0,-999.0,63,-99.99,,,-99.99,,2013-08-29 18:12:00,
2013-08-29 14:22:00,82.0,66.0,29.88,North,349,1.0,-999.0,59,-99.99,,,-99.99,,2013-08-29 18:22:00,
2013-08-29 14:42:00,83.0,66.0,29.87,NNW,333,0.0,-999.0,56,-99.99,,,-99.99,,2013-08-29 18:42:00,
2013-08-29 14:52:00,83.0,66.0,29.86,NE,49,1.0,-999.0,57,-99.99,,,-99.99,,2013-08-29 18:52:00,
2013-08-29 15:11:00,84.0,67.0,29.86,North,0,1.0,-999.0,56,-99.99,,,-99.99,,2013-08-29 19:11:00,
2013-08-29 15:22:00,84.0,66.0,29.85,NNW,344,1.0,-999.0,55,-99.99,,,-99.99,,2013-08-29 19:22:00,
2013-08-29 15:42:00,85.0,67.0,29.85,North,349,1.0,-999.0,55,-99.99,,,-99.99,,2013-08-29 19:42:00,
2013-08-29 15:52:00,86.0,68.0,29.85,NNE,14,0.0,-999.0,56,-99.99,,,-99.99,,2013-08-29 19:52:00,
2013-08-29 16:13:00,85.0,68.0,29.84,NNW,336,1.0,-999.0,57,-99.99,,,-99.99,,2013-08-29 20:13:00,
2013-08-29 16:22:00,85.0,69.0,29.84,NNW,342,1.0,-999.0,59,-99.99,,,-99.99,,2013-08-29 20:22:00,
2013-08-29 16:42:00,85.0,68.0,29.84,NNW,333,1.0,-999.0,57,-99.99,,,-99.99,,2013-08-29 20:42:00,
2013-08-29 16:52:00,84.0,68.0,29.85,NNW,328,2.0,-999.0,58,-99.99,,,-99.99,,2013-08-29 20:52:00,
2013-08-29 17:02:00,84.0,68.0,29.85,NNW,328,2.0,-999.0,58,-99.99,,,-99.99,,2013-08-29 21:02:00,
2013-08-29 17:12:00,84.0,68.0,29.85,NNW,328,2.0,-999.0,58,-99.99,,,-99.99,,2013-08-29 21:12:00,
2013-08-29 17:22:00,83.0,69.0,29.85,NNW,329,0.0,-999.0,62,-99.99,,,-99.99,,2013-08-29 21:22:00,
2013-08-29 17:44:00,81.0,70.0,29.86,NNW,329,0.0,-999.0,69,-99.99,,,-99.99,,2013-08-29 21:44:00,
2013-08-29 17:54:00,81.0,67.0,29.86,NNW,329,0.0,-999.0,63,-99.99,,,-99.99,,2013-08-29 21:54:00,
2013-08-29 18:14:00,82.0,68.0,29.85,NNW,329,0.0,-999.0,63,-99.99,,,-99.99,,2013-08-29 22:14:00,
2013-08-29 18:24:00,82.0,70.0,29.85,NNW,329,0.0,-999.0,67,-99.99,,,-99.99,,2013-08-29 22:24:00,
2013-08-29 18:43:00,82.0,69.0,29.85,NNW,329,0.0,-999.0,66,-99.99,,,-99.99,,2013-08-29 22:43:00,
2013-08-29 18:53:00,80.0,70.0,29.85,NNW,329,0.0,-999.0,72,-99.99,,,-99.99,,2013-08-29 22:53:00,
2013-08-29 19:13:00,79.0,67.0,29.88,NW,322,1.0,-999.0,67,-99.99,,,-99.99,,2013-08-29 23:13:00,
2013-08-29 19:22:00,79.0,68.0,29.88,NW,322,0.0,-999.0,70,-99.99,,,-99.99,,2013-08-29 23:22:00,
2013-08-29 19:53:00,77.0,69.0,29.88,NW,322,0.0,-999.0,77,-99.99,,,-99.99,,2013-08-29 23:53:00,
2013-08-29 20:12:00,76.0,69.0,29.88,NW,322,0.0,-999.0,80,-99.99,,,-99.99,,2013-08-30 00:12:00,
2013-08-29 20:22:00,74.0,68.0,29.88,NW,322,0.0,-999.0,82,-99.99,,,-99.99,,2013-08-30 00:22:00,
2013-08-29 20:42:00,73.0,68.0,29.89,NW,322,0.0,-999.0,84,-99.99,,,-99.99,,2013-08-30 00:42:00,
2013-08-29 20:52:00,72.0,67.0,29.89,NW,322,0.0,-999.0,85,-99.99,,,-99.99,,2013-08-30 00:52:00,
2013-08-29 21:12:00,71.0,67.0,29.90,NW,322,0.0,-999.0,86,-99.99,,,-99.99,,2013-08-30 01:12:00,
2013-08-29 21:22:00,71.0,67.0,29.91,NW,322,0.0,-999.0,88,-99.99,,,-99.99,,2013-08-30 01:22:00,
2013-08-29 21:42:00,70.0,67.0,29.91,NW,322,0.0,-999.0,89,-99.99,,,-99.99,,2013-08-30 01:42:00,
2013-08-29 21:52:00,70.0,67.0,29.91,NW,322,0.0,-999.0,89,-99.99,,,-99.99,,2013-08-30 01:52:00,
2013-08-29 22:11:00,69.0,66.0,29.91,NW,322,0.0,-999.0,90,-99.99,,,-99.99,,2013-08-30 02:11:00,
2013-08-29 22:22:00,69.0,66.0,29.91,NW,322,0.0,-999.0,90,-99.99,,,-99.99,,2013-08-30 02:22:00,
2013-08-29 22:42:00,68.0,65.0,29.91,NW,322,0.0,-999.0,90,-99.99,,,-99.99,,2013-08-30 02:42:00,
2013-08-29 22:52:00,68.0,65.0,29.91,NW,322,0.0,-999.0,91,-99.99,,,-99.99,,2013-08-30 02:52:00,
2013-08-29 23:12:00,68.0,65.0,29.90,NW,322,0.0,-999.0,91,-99.99,,,-99.99,,2013-08-30 03:12:00,
2013-08-29 23:22:00,68.0,66.0,29.89,NW,322,0.0,-999.0,92,-99.99,,,-99.99,,2013-08-30 03:22:00,
2013-08-29 23:55:00,67.0,65.0,29.89,NW,322,0.0,-999.0,92,-99.99,,,-99.99,,2013-08-30 03:55:00,